map of FPR home
FPR - Airport
Location
City:  Fort Pierce, Florida, United States
Name:Treasure Coast International Airport
ICAO:KFPR
IATA:FPR
FAA LID:FPR

Details
Type:Airport (Airfield)
Use:Public/Civil, International (customs landing rights)
Latitude:2729'51"N (27.497472)
Longitude:8022'21"W (-80.372638)
Datum:WGS 1984
Elevation:23 ft (7 m)
Variation:6.91W (WMM2015 magnetic declination)
-0.09 annual change
Runways:3
Longest:6492 × 150 ft (1979 × 45.5 m), paved

Time
Time Zone:UTC-5 (DST-4)
Local Time:

Weather
METAR:KFPR 210753Z AUTO 27003KT 9SM CLR 23/23 A3009 RMK AO2 SLP188 T02330233
TAF:KFPR 210545Z 2106/2206 VRB03KT P6SM SCT250
FM211500 12010KT P6SM SCT035

Related Locations
Nearby:
Farthest:USL: 11591 mi / 18654 km
Useless Loop, WA, AU

Find:

   beyond  
but within

Other Information
Maps:
NOTAMs:
Links:
Sources:

  
  • flag of United States
  • flag of Florida
  

Airport Diagram

Airport diagram for FPR

Airport diagram PDF

Sectional Chart

Flight Planning
at skyvector.com

Satellite Image

Google Maps Satellite view

 

Copyright © 2004-2018 Karl L. Swartz. All rights reserved.
The Great Circle Mapper name and logo are trademarks of the Great Circle Mapper.
All other trademarks mentioned herein belong to their respective owners.
Please see credits for attibutions and further copyright information.

  Follow gcmap on Facebook Follow gcmap on Twitter Follow gcmap on Google+ GCmap on LinkedIn

hCard Microformat

Geo Microformat